TimePDT,TemperatureF,Dew PointF,Humidity,Sea Level PressureIn,VisibilityMPH,Wind Direction,Wind SpeedMPH,Gust SpeedMPH,PrecipitationIn,Events,Conditions,WindDirDegrees,DateUTC
12:56 AM,52.0,28.9,41,30.08,10.0,West,8.1,-,N/A,,Clear,270,2013-10-31 07:56:00
1:56 AM,52.0,30.9,45,30.08,10.0,West,8.1,-,N/A,,Clear,260,2013-10-31 08:56:00
2:56 AM,50.0,30.0,46,30.08,10.0,WSW,5.8,-,N/A,,Clear,250,2013-10-31 09:56:00
3:56 AM,50.0,30.9,48,30.09,10.0,WSW,5.8,-,N/A,,Clear,240,2013-10-31 10:56:00
4:56 AM,46.9,28.9,50,30.10,10.0,West,4.6,-,N/A,,Clear,260,2013-10-31 11:56:00
5:56 AM,48.9,28.9,46,30.11,10.0,West,6.9,-,N/A,,Clear,260,2013-10-31 12:56:00
6:56 AM,48.0,30.9,52,30.13,10.0,West,4.6,-,N/A,,Clear,260,2013-10-31 13:56:00
7:56 AM,50.0,30.0,46,30.15,10.0,West,5.8,-,N/A,,Clear,270,2013-10-31 14:56:00
8:56 AM,57.9,34.0,41,30.17,10.0,WSW,5.8,-,N/A,,Clear,240,2013-10-31 15:56:00
9:56 AM,66.0,36.0,33,30.17,10.0,West,5.8,-,N/A,,Clear,260,2013-10-31 16:56:00
10:56 AM,72.0,35.1,26,30.17,10.0,WNW,5.8,-,N/A,,Clear,290,2013-10-31 17:56:00
11:56 AM,73.9,33.1,22,30.14,10.0,Calm,Calm,-,N/A,,Clear,0,2013-10-31 18:56:00
12:56 PM,75.9,28.0,17,30.12,10.0,Calm,Calm,-,N/A,,Partly Cloudy,0,2013-10-31 19:56:00
1:56 PM,78.1,28.0,16,30.09,10.0,ENE,4.6,-,N/A,,Partly Cloudy,60,2013-10-31 20:56:00
2:56 PM,77.0,24.8,14,30.08,10.0,Calm,Calm,-,N/A,,Partly Cloudy,0,2013-10-31 21:56:00
3:56 PM,78.1,25.0,14,30.06,10.0,Calm,Calm,-,N/A,,Clear,0,2013-10-31 22:56:00
4:56 PM,77.0,27.0,16,30.05,10.0,ESE,3.5,-,N/A,,Clear,110,2013-10-31 23:56:00
5:56 PM,73.9,27.0,18,30.05,10.0,SE,3.5,-,N/A,,Clear,140,2013-11-01 00:56:00
6:56 PM,68.0,28.9,23,30.06,10.0,South,4.6,-,N/A,,Clear,180,2013-11-01 01:56:00
7:56 PM,64.9,28.0,25,30.06,10.0,SW,3.5,-,N/A,,Clear,220,2013-11-01 02:56:00
8:56 PM,61.0,33.1,35,30.07,10.0,SSW,4.6,-,N/A,,Clear,210,2013-11-01 03:56:00
9:56 PM,59.0,30.9,35,30.09,10.0,SW,5.8,-,N/A,,Clear,230,2013-11-01 04:56:00
10:56 PM,55.9,25.0,30,30.09,10.0,West,9.2,-,N/A,,Clear,260,2013-11-01 05:56:00
11:56 PM,55.0,25.0,31,30.10,10.0,WSW,8.1,-,N/A,,Clear,250,2013-11-01 06:56:00